Wind_Speed
56 54 51 50 49 48 49 51 53 54 54 53 53 53 53 52 53 54 51 54 62 65 67 70 70 70 70 69 67 64 63 61 59 57 57 56 56 55 55 54 53 51 49 47 44 44 46 46 46 44 43 44 47 48 50 50 48 47 47 46 44 43 42 43 46 47 47 45 45 46 46 47 47 48 49 49 49 50 53 56 57 58 56 55 53 51
57 53 50 51 51 50 51 51 52 52 52 51 52 52 51 52 53 53 50 51 57 62 64 65 65 66 69 68 66 65 64 62 60 58 57 57 56 55 54 54 53 51 49 47 45 44 45 47 49 48 46 44 43 43 45 46 47 45 44 44 44 44 45 47 48 48 48 46 46 46 46 47 48 49 50 50 50 52 55 57 57 56 56 55 53 52
56 52 52 53 52 52 51 51 51 50 50 50 50 50 50 51 52 52 49 48 52 58 59 59 59 61 64 64 62 62 64 63 62 60 58 57 56 55 54 53 52 50 48 47 47 47 47 49 51 55 55 51 46 43 41 42 44 44 42 42 43 44 45 45 46 46 45 45 46 46 47 48 49 50 51 50 52 54 57 57 56 54 52 50 49 49
56 53 55 55 54 53 51 51 51 50 49 48 48 47 48 49 50 51 48 46 49 53 53 53 54 56 57 57 56 57 60 62 62 61 59 58 57 55 53 53 51 49 48 49 49 49 51 52 53 56 57 55 51 47 43 41 42 42 42 42 43 43 43 43 44 44 45 46 47 47 48 50 51 51 51 51 54 56 58 58 56 54 47 38 37 38
58 57 58 58 56 54 53 52 52 50 48 47 46 46 47 48 49 50 49 47 48 49 50 50 50 50 51 50 50 51 53 55 58 59 59 59 58 55 54 53 52 51 50 50 50 51 52 53 54 55 57 57 54 51 47 45 43 43 43 43 42 42 42 42 44 46 47 48 48 49 49 50 51 51 51 53 56 58 59 58 56 52 42 30 31 33
61 60 60 58 56 55 53 53 52 50 48 47 46 46 47 49 49 50 50 49 47 46 47 49 48 47 47 46 45 45 45 48 52 54 55 57 58 57 56 55 54 53 52 52 52 52 53 54 55 55 57 57 55 54 51 48 45 44 44 43 42 42 42 43 45 46 48 49 50 49 49 50 50 51 52 55 57 59 59 59 57 53 43 36 37 38
63 62 60 59 57 55 54 52 52 51 48 47 47 46 48 50 50 50 50 48 45 42 43 46 48 48 46 43 42 41 42 43 45 46 48 52 54 55 56 55 54 53 52 52 52 53 54 54 55 54 55 55 55 56 54 48 44 44 45 44 42 42 44 46 47 47 49 49 49 49 49 50 51 53 55 57 58 60 60 60 58 55 50 44 42 41
64 63 61 60 58 56 53 52 52 51 47 47 48 48 50 50 50 51 49 47 43 40 41 44 48 48 43 41 40 40 40 40 39 39 42 45 47 48 50 52 54 53 52 52 53 53 53 54 54 54 54 54 55 56 53 48 44 45 46 46 46 47 49 49 48 48 49 50 49 50 51 51 53 55 57 59 59 60 61 61 60 58 55 51 47 45
66 64 62 61 59 56 54 54 55 52 48 49 50 51 51 50 52 52 48 45 43 40 42 44 45 44 42 40 39 38 38 38 37 37 36 38 40 42 44 47 51 53 54 54 55 54 53 53 54 55 55 56 57 56 53 51 49 47 46 47 49 51 52 50 49 51 52 52 52 52 52 52 55 57 58 59 60 62 62 62 62 61 58 55 52 48
69 65 63 63 60 57 56 56 56 53 50 51 52 53 53 52 53 52 47 46 43 39 40 42 42 43 42 39 37 37 37 36 37 35 32 34 37 40 41 43 47 52 55 56 55 54 54 55 54 54 55 56 58 57 55 54 53 50 49 49 51 51 52 52 52 52 53 53 53 53 53 55 57 59 59 59 61 63 63 63 63 62 60 58 53 50
70 68 67 65 61 59 58 58 57 54 52 53 54 55 54 53 54 51 46 46 42 38 39 39 41 44 43 40 37 37 36 34 35 32 31 34 36 38 40 41 43 48 54 55 54 53 54 55 56 55 55 57 57 56 54 53 52 53 53 53 53 53 53 53 53 53 53 53 53 54 55 58 59 59 59 59 61 63 64 64 65 63 62 59 55 51
70 70 68 64 62 61 61 59 57 55 55 55 55 56 54 54 54 49 46 45 41 38 39 39 41 43 44 41 39 38 35 32 31 30 31 33 35 36 38 40 41 45 50 53 55 56 54 54 54 54 56 58 58 55 53 53 53 54 53 52 53 54 53 53 52 52 53 53 54 56 58 59 59 58 58 60 62 63 64 65 65 64 62 59 55 54
70 70 67 65 64 64 61 59 58 57 55 55 56 56 55 55 53 48 46 45 42 40 40 41 42 43 44 43 40 38 35 31 31 32 32 33 34 35 37 39 41 44 48 50 53 57 57 55 53 52 52 55 57 56 54 54 54 54 52 51 51 52 52 52 53 54 55 56 57 58 59 59 58 56 58 60 62 63 65 65 65 64 61 57 55 55
71 71 69 67 65 63 61 60 59 57 54 55 56 55 55 55 51 48 48 47 45 44 42 42 42 42 44 43 39 37 34 31 33 33 32 34 35 36 37 39 41 43 46 47 50 54 56 56 55 53 52 52 53 55 54 55 56 56 55 54 53 52 53 54 55 56 57 58 58 59 59 58 56 56 58 61 62 64 65 65 64 63 60 57 56 56
69 71 69 66 63 61 61 60 58 58 57 57 58 57 56 55 52 51 51 49 48 47 44 44 42 41 42 40 38 36 32 30 32 32 32 35 36 37 37 39 40 42 44 45 48 51 53 55 56 56 55 54 54 55 57 58 58 58 57 56 55 54 54 55 56 57 58 59 59 59 58 56 55 57 59 61 62 63 64 64 63 61 58 56 57 57
67 69 68 67 64 63 63 62 61 62 60 59 61 58 55 54 54 54 54 52 51 49 46 45 41 38 38 37 37 36 32 31 31 32 33 35 36 37 36 37 40 42 43 44 45 47 50 51 53 55 56 55 56 57 58 59 59 59 57 56 55 55 55 56 56 57 59 59 59 58 56 55 55 57 59 61 62 63 63 63 61 58 56 56 57 57
65 66 68 69 68 66 65 63 63 64 61 60 61 56 53 56 58 57 56 54 53 49 47 45 40 37 36 37 38 35 33 32 32 32 34 36 38 37 36 37 40 42 43 44 45 46 47 49 50 52 55 56 58 59 60 61 61 60 59 58 57 56 56 57 57 58 58 58 57 56 55 54 55 57 59 60 61 62 62 61 59 55 55 55 55 54
65 65 67 69 70 69 66 65 65 65 62 61 60 57 59 63 61 58 57 56 53 49 48 46 41 37 38 38 37 34 34 35 34 35 36 38 40 39 39 40 41 42 44 44 45 45 45 47 49 50 52 54 57 58 60 61 62 62 62 60 59 58 57 57 57 57 56 56 55 55 54 54 55 57 59 59 60 60 61 60 56 53 53 53 52 48
66 65 66 69 71 71 68 67 67 65 62 61 61 63 66 65 60 58 57 55 53 51 50 47 42 39 39 39 37 36 36 37 38 39 39 40 41 40 40 41 41 43 45 45 45 45 45 46 48 49 51 52 53 55 56 58 60 61 62 61 60 58 57 56 56 56 55 55 55 54 53 54 56 57 57 58 58 58 59 57 54 51 50 50 47 42
66 66 66 68 70 72 71 69 65 62 62 63 65 67 66 63 60 59 58 56 55 54 52 48 44 41 40 39 39 38 38 38 40 41 41 41 41 40 40 41 41 42 44 45 45 46 46 47 48 50 51 51 52 52 54 55 56 57 59 61 61 59 57 55 54 54 54 54 54 53 53 55 56 56 56 57 56 56 57 55 52 48 47 46 41 34
66 65 65 66 68 70 70 67 63 62 65 67 67 67 65 63 62 61 59 58 57 56 54 50 46 43 42 41 41 40 40 40 41 42 43 44 42 41 41 41 41 42 44 46 46 46 47 47 48 49 50 50 51 51 52 54 54 54 55 58 59 60 59 57 54 53 53 53 53 53 53 54 55 54 54 55 55 55 54 52 49 45 43 40 34 28
65 64 65 65 64 63 63 65 67 68 69 69 68 67 65 65 64 63 61 59 57 55 54 51 48 47 45 44 44 42 41 41 42 43 45 45 45 44 43 43 43 44 46 47 46 46 47 48 48 49 49 48 49 50 51 51 51 50 51 53 56 57 58 58 56 54 53 52 53 53 53 53 53 52 53 53 53 53 52 50 47 42 39 34 28 23
63 63 63 62 59 57 59 66 70 71 71 71 71 69 68 68 67 64 61 60 58 56 55 54 53 50 49 48 46 44 42 43 44 45 47 47 46 45 44 44 47 48 48 48 47 47 48 49 49 49 49 48 47 48 48 49 48 47 47 49 51 53 54 55 55 53 53 52 52 52 51 51 51 51 51 51 52 52 50 48 44 39 35 30 24 21
63 62 61 59 57 57 60 64 69 72 74 73 72 71 71 69 67 64 62 62 62 60 60 60 58 54 52 51 49 45 44 46 47 47 47 47 46 46 45 45 48 49 48 48 48 49 49 50 50 49 49 48 47 46 46 46 46 45 46 46 48 49 49 50 51 51 51 51 50 49 49 49 49 49 49 49 50 50 48 46 42 37 32 27 23 21
60 59 58 57 57 57 58 59 63 68 71 72 72 72 70 68 66 64 64 65 66 64 63 63 61 57 54 53 51 49 49 50 49 48 48 46 45 45 45 46 46 46 47 47 48 49 50 50 50 50 49 49 47 45 45 45 44 44 45 46 46 47 47 47 47 47 48 48 47 47 47 48 48 48 48 48 48 48 46 44 41 35 30 25 23 23
57 56 55 56 55 54 55 55 56 60 64 68 70 71 70 68 67 66 66 68 68 66 65 65 62 57 54 54 53 53 54 53 50 48 48 47 45 46 47 46 45 45 46 47 47 48 49 50 49 49 49 49 48 47 45 45 45 45 45 45 45 46 47 46 46 45 46 46 45 45 46 46 46 46 46 47 47 46 44 42 40 35 29 24 24 25
55 54 53 53 52 52 53 55 56 58 61 64 66 68 68 68 68 67 68 69 67 66 67 67 63 58 55 56 57 57 57 56 54 51 49 49 48 48 49 48 48 48 47 46 46 46 47 47 46 45 45 47 48 48 47 45 45 45 45 44 44 45 46 45 45 44 44 44 43 44 45 45 45 45 45 45 45 44 42 40 39 35 29 24 24 28
52 52 51 50 50 51 53 57 59 61 61 63 65 67 67 67 68 68 68 67 66 67 69 67 63 59 57 57 59 59 58 57 57 55 53 53 52 51 50 50 49 49 49 48 47 45 45 45 45 44 44 45 46 47 46 44 43 43 44 44 44 44 44 44 43 43 42 42 42 43 44 45 45 45 44 44 44 43 40 38 38 35 31 25 23 29
51 51 50 49 48 50 52 55 57 57 58 61 63 65 66 67 68 69 68 67 67 69 69 67 65 63 61 61 61 60 59 57 56 55 54 54 53 53 53 52 52 52 51 51 48 45 44 44 45 46 46 46 46 45 44 42 42 43 43 43 43 43 43 43 42 42 42 42 42 43 44 44 44 45 44 44 43 42 39 37 36 35 33 28 23 28
51 51 50 49 48 48 49 49 47 47 51 55 57 58 60 62 64 66 68 70 71 71 70 69 67 65 62 61 61 59 57 55 54 54 53 53 53 53 54 54 55 55 54 52 50 48 46 45 45 45 46 45 45 45 43 42 42 42 41 41 42 42 42 42 42 42 42 42 43 44 44 44 44 45 44 44 43 42 39 37 35 34 33 31 26 25
51 51 51 49 49 49 47 45 44 45 47 49 50 51 53 55 57 59 62 66 68 68 67 66 65 63 60 58 56 55 54 52 51 51 51 52 52 52 52 53 54 54 53 51 50 49 48 47 45 43 44 44 44 45 45 44 42 41 41 41 42 42 42 42 42 42 43 43 43 44 44 44 45 45 45 44 44 42 40 38 36 34 33 32 30 27
53 53 52 51 51 51 49 48 48 49 50 50 51 51 52 53 53 53 54 57 59 58 57 57 58 58 57 55 53 52 52 51 50 50 51 51 52 52 53 53 53 53 53 53 52 50 50 49 46 44 44 45 45 46 46 45 43 43 43 43 43 43 43 43 43 43 44 44 44 44 44 44 46 46 46 45 44 43 42 40 38 36 33 32 32 31
53 53 52 52 53 52 51 51 51 52 52 52 52 52 53 53 52 51 51 54 55 54 53 53 55 56 57 57 56 53 51 50 50 50 51 51 51 52 53 54 54 55 54 54 53 52 51 50 48 47 46 47 47 47 46 46 45 46 46 45 44 44 44 44 44 44 45 45 45 44 44 45 47 47 47 46 45 44 43 42 40 38 36 33 32 32
52 53 53 53 53 52 52 52 52 53 53 51 51 52 53 52 50 50 52 53 53 53 53 53 54 54 55 57 57 54 51 50 49 49 51 51 52 53 54 54 54 54 53 53 53 52 52 52 51 49 48 49 49 49 49 48 47 48 49 47 45 45 45 45 45 45 46 46 45 45 45 46 48 48 48 48 47 46 45 44 42 41 39 37 34 33
52 52 53 53 52 52 52 53 52 52 51 50 51 51 51 51 48 47 48 49 50 50 51 51 51 52 53 54 54 52 51 50 49 50 51 52 51 52 53 53 52 52 52 52 52 51 51 51 51 51 51 51 52 53 52 50 49 50 50 48 46 46 46 46 46 46 46 47 47 47 47 48 49 50 50 49 49 48 48 46 45 43 42 41 39 36
52 53 53 54 54 53 53 53 52 51 51 52 51 50 50 49 46 42 42 44 45 46 47 49 51 52 53 54 53 52 52 52 52 52 52 52 53 53 52 52 51 51 50 48 46 46 47 48 50 51 52 52 53 54 53 52 51 51 50 48 48 47 47 47 48 47 47 48 48 48 48 49 51 51 52 51 51 51 50 49 48 47 45 44 43 41
54 54 55 55 54 53 53 53 52 52 53 52 51 50 49 47 44 42 42 42 42 43 44 47 51 53 54 55 54 54 54 54 54 54 53 53 54 54 54 53 53 51 47 42 40 42 44 47 49 51 51 52 52 53 52 52 52 51 49 49 49 48 48 48 49 49 49 49 49 50 50 51 52 53 53 53 53 53 53 52 51 50 49 48 47 45
54 55 55 55 53 53 53 52 52 52 52 51 50 48 47 45 44 45 46 45 43 43 44 46 50 54 55 55 54 54 55 55 55 54 54 54 54 53 53 53 52 52 48 42 41 43 46 47 50 52 53 52 51 50 49 50 51 51 50 49 49 49 48 49 50 50 50 51 51 52 53 53 54 54 55 55 55 55 55 55 54 53 52 52 51 50
54 54 54 53 52 52 52 51 51 51 51 50 48 45 44 44 46 49 51 48 44 43 45 47 50 54 55 55 55 55 54 55 55 55 55 54 53 53 53 52 52 52 50 46 44 45 47 49 51 53 53 53 52 50 48 49 49 50 50 50 50 49 49 49 50 51 51 52 53 54 54 55 55 56 56 56 57 57 57 57 57 56 55 55 54 54
52 52 52 52 51 50 50 49 48 49 49 47 44 42 42 44 47 50 51 48 45 44 45 46 49 54 56 56 55 53 53 53 54 55 54 53 53 53 54 53 51 49 49 47 47 47 49 51 52 52 51 51 51 51 50 49 48 49 50 50 50 50 50 49 50 51 52 53 54 55 55 56 57 57 57 58 59 59 60 60 59 59 58 58 58 58
48 49 49 48 48 48 47 46 46 46 45 44 42 42 42 44 44 45 47 48 46 44 42 42 45 51 54 54 54 54 54 52 51 51 52 52 51 51 52 52 50 48 47 48 48 49 51 52 52 51 49 48 48 49 50 49 48 49 49 50 50 50 50 50 50 52 53 54 55 56 56 57 58 58 59 60 61 61 62 62 61 61 61 61 61 61
45 46 45 44 43 44 44 44 45 45 43 42 43 45 45 44 42 43 45 46 43 39 36 36 39 43 45 48 51 54 56 54 52 51 52 51 50 49 48 49 48 47 47 48 49 50 52 53 53 52 50 49 48 48 49 49 49 49 49 50 50 50 51 51 52 53 54 55 56 57 57 58 59 60 61 62 62 63 64 63 63 63 63 64 64 65
41 41 41 40 39 41 42 43 44 45 43 44 45 46 46 44 43 45 46 44 40 38 36 35 36 38 40 42 45 48 51 52 52 52 51 50 49 47 46 46 46 46 48 49 50 51 53 54 54 54 54 53 51 50 49 49 49 49 49 50 50 51 52 52 53 54 55 56 56 57 58 60 60 61 62 63 64 65 65 65 65 65 66 66 67 68
36 36 36 37 37 39 40 42 45 47 47 49 50 48 46 44 45 47 47 44 42 41 41 40 39 39 40 42 41 41 43 45 46 47 47 46 45 44 44 46 47 48 49 51 53 54 55 56 57 58 58 56 54 51 50 49 49 49 50 50 51 52 52 53 54 55 56 57 58 59 60 61 62 63 64 65 66 66 66 66 67 68 68 69 70 70
32 32 33 35 36 38 40 42 45 47 49 51 51 50 48 48 48 49 48 46 43 42 42 43 42 41 41 42 40 39 38 38 38 39 40 42 43 43 45 48 49 49 51 53 55 57 58 59 59 59 59 58 56 53 50 49 50 50 51 52 52 53 54 55 55 56 57 58 59 60 61 62 63 64 65 66 67 67 68 68 69 70 71 72 73 73
32 32 33 34 35 36 39 41 43 45 47 49 49 48 48 49 49 49 48 46 44 42 41 42 41 41 40 39 38 38 38 37 36 36 37 39 42 45 48 50 52 53 53 54 55 56 56 56 56 56 57 57 57 55 53 52 52 52 53 53 54 54 55 56 57 58 59 59 60 61 62 63 64 65 66 67 68 69 70 71 71 73 74 75 75 76
34 34 34 35 35 36 38 40 41 43 45 46 46 45 45 45 46 46 45 43 41 40 39 39 39 39 38 37 36 36 37 37 38 38 40 42 43 46 49 51 52 52 52 52 52 52 52 52 53 54 54 55 55 55 55 54 54 54 54 55 55 56 56 57 58 59 60 60 61 62 63 64 65 66 67 68 69 70 72 73 74 75 76 77 77 77
35 35 35 35 36 37 38 39 40 40 41 42 42 42 42 42 42 41 40 39 37 36 36 36 36 36 36 36 36 37 38 39 40 41 43 45 47 49 50 51 51 50 50 49 49 49 50 51 52 53 52 52 52 53 54 54 55 55 55 55 56 57 57 58 59 60 61 61 62 63 64 65 66 67 69 70 71 73 74 75 77 78 78 79 78 78
34 34 33 33 34 35 37 37 37 37 37 37 37 38 38 38 38 38 37 36 36 36 36 37 37 37 38 38 39 40 41 41 40 42 44 48 51 53 53 53 53 52 51 50 49 50 51 52 52 51 50 50 51 52 53 54 54 55 55 56 57 57 58 59 60 61 62 62 63 64 66 67 68 69 71 72 74 75 77 78 79 79 80 80 79 78
31 31 31 31 31 32 34 34 34 34 34 34 34 35 35 36 37 37 37 37 37 38 39 40 40 41 41 41 42 42 42 41 41 43 45 48 51 52 52 53 53 53 52 52 51 52 53 52 51 51 51 51 51 52 53 54 55 55 56 57 58 58 59 60 61 62 63 64 65 66 67 69 70 72 73 74 76 77 78 79 80 80 80 79 78 75
31 31 32 32 32 33 34 33 33 34 35 35 35 34 34 36 38 39 40 40 39 39 39 40 41 42 42 42 43 43 42 42 43 45 46 47 49 51 51 52 53 53 54 54 53 52 53 52 52 52 52 52 52 53 53 54 55 56 57 58 59 60 60 61 62 63 64 66 67 68 69 71 72 73 75 76 77 78 79 80 80 79 77 75 73 71
Wind_Direction
233 234 234 234 234 233 232 232 232 232 231 231 231 232 232 233 234 234 232 233 238 239 238 239 240 242 243 244 245 245 246 246 245 245 247 249 250 249 249 248 248 249 248 247 245 243 240 238 244 260 268 266 267 268 268 268 270 273 270 267 269 269 268 274 277 276 276 275 275 276 278 280 283 286 289 290 291 293 296 299 302 303 304 304 304 303
232 233 234 234 234 233 233 233 233 233 232 231 232 232 232 234 235 235 232 231 236 238 238 239 239 241 243 244 245 245 246 247 246 245 245 246 248 249 250 250 249 249 249 248 246 243 239 237 241 250 259 265 270 271 270 267 267 270 269 267 268 270 271 275 275 275 275 274 274 275 277 280 283 286 288 289 291 294 298 301 303 306 308 307 306 306
231 232 233 234 234 234 234 235 235 234 233 232 232 233 233 234 236 236 233 232 236 238 239 240 240 241 243 244 245 245 245 246 246 245 244 245 246 248 249 250 250 250 250 249 246 243 240 240 243 247 254 260 264 269 270 266 266 267 268 270 272 273 274 274 274 275 275 273 273 275 277 280 283 285 286 288 293 297 300 303 305 309 313 312 312 314
228 229 231 232 233 233 233 234 235 234 234 233 233 234 234 235 236 236 233 231 236 239 240 240 241 241 243 244 245 246 245 245 246 246 246 245 246 247 249 250 251 250 250 248 246 245 244 244 245 247 252 256 259 264 266 263 263 266 270 274 275 275 274 273 274 275 276 275 275 276 278 280 282 285 287 291 296 300 302 305 307 311 315 314 313 314
224 225 228 229 230 231 232 233 234 234 233 233 233 233 235 235 236 236 233 230 233 239 241 241 241 242 243 244 246 247 246 246 246 246 247 248 248 247 248 249 249 248 247 246 246 246 246 246 246 247 250 253 256 259 259 259 264 268 271 272 272 272 273 274 275 274 275 277 277 278 279 281 283 287 291 296 300 302 303 305 307 309 311 306 298 294
223 224 226 228 229 230 231 232 233 233 233 233 233 233 234 235 235 236 234 230 231 237 243 244 242 242 242 243 244 246 246 245 244 245 246 248 248 247 246 246 246 246 246 246 247 247 248 248 248 248 250 252 255 255 255 258 265 268 268 268 267 267 270 275 276 274 275 277 277 278 280 283 287 290 295 299 301 302 303 305 306 307 306 300 291 283
221 223 225 227 228 229 230 232 233 234 233 233 234 234 234 235 236 236 235 231 229 233 241 245 244 242 240 241 242 243 244 243 243 243 244 246 247 246 245 246 246 246 246 246 246 247 247 248 248 248 250 251 253 253 254 259 264 264 264 263 263 267 272 276 277 274 274 275 276 279 283 286 290 294 298 300 301 302 304 305 306 306 304 300 293 282
221 222 224 226 227 228 229 231 233 234 233 233 234 234 234 236 237 238 237 234 230 229 235 241 245 244 242 240 241 242 243 243 243 242 243 245 248 249 247 246 246 246 246 245 244 245 245 247 248 248 249 250 251 252 254 258 262 261 260 259 262 271 275 275 276 275 274 276 278 283 286 289 293 297 299 299 300 302 303 304 305 305 303 301 297 286
220 221 223 225 226 226 228 229 231 232 232 232 233 233 234 235 237 238 238 237 231 227 231 237 243 248 247 243 242 243 244 245 244 242 242 246 249 251 249 246 245 245 244 242 241 242 244 245 246 246 247 248 250 252 254 258 261 260 259 261 265 272 273 272 273 274 275 277 280 285 288 291 295 297 297 299 300 302 303 304 305 305 304 302 298 291
219 220 221 223 224 224 226 228 230 231 230 231 231 233 234 234 237 238 238 238 234 229 231 236 241 248 249 246 244 243 242 244 245 244 243 244 245 247 247 245 244 244 243 242 242 242 242 243 243 245 247 248 250 252 255 259 261 260 262 266 268 270 269 270 272 274 276 278 281 285 290 292 294 295 296 298 300 302 303 304 305 305 304 302 298 292
219 219 219 221 222 222 224 226 229 230 230 231 232 233 235 235 237 239 239 239 237 233 234 235 238 245 248 248 247 246 242 242 245 246 245 245 244 244 244 243 243 243 244 243 242 241 242 243 244 246 249 250 252 254 257 260 261 262 265 267 266 265 267 270 272 275 277 280 284 287 290 292 292 293 295 298 301 302 303 304 305 305 304 302 298 293
219 220 220 221 222 222 223 226 228 229 230 231 232 234 235 236 238 240 240 241 239 237 237 235 235 241 246 247 247 247 246 246 248 248 247 247 248 247 246 244 242 242 242 241 241 241 243 244 245 247 249 251 253 255 257 259 261 263 264 265 265 264 266 270 273 276 280 283 286 288 289 290 291 293 296 299 301 301 303 304 305 305 304 302 299 295
219 220 221 221 222 223 224 225 227 229 230 232 234 235 236 238 240 241 242 243 242 239 238 236 236 238 242 245 246 247 248 250 251 249 247 247 247 247 247 245 242 242 242 241 241 241 242 243 244 246 248 249 251 253 255 257 258 259 260 263 266 265 267 272 276 279 282 284 285 286 287 288 290 293 297 299 300 301 302 304 304 305 304 302 299 296
218 219 220 220 222 224 226 226 228 231 232 233 235 236 237 239 241 242 242 243 242 240 237 236 236 238 241 244 246 247 248 248 248 249 247 246 245 244 244 244 243 243 244 243 242 242 242 241 242 244 247 248 249 250 252 254 256 256 258 264 267 265 267 271 274 276 279 280 282 283 285 286 290 294 297 298 299 300 302 304 305 305 305 303 300 298
219 219 220 221 223 224 226 227 227 230 230 231 233 234 235 238 240 241 242 242 242 241 239 237 236 238 243 246 247 247 243 241 243 246 246 246 246 245 245 246 246 246 246 245 245 245 245 244 244 246 248 250 251 252 253 254 255 256 259 263 265 265 266 268 270 273 275 278 280 282 283 286 290 294 296 297 299 301 303 305 306 306 305 303 301 299
220 219 218 219 221 222 224 226 225 227 228 229 232 234 235 238 239 239 240 241 241 240 240 239 237 238 242 244 245 245 240 235 236 240 243 245 247 248 247 247 247 247 246 245 245 246 247 247 247 248 249 250 251 252 253 254 255 256 258 261 263 264 265 266 269 272 274 277 279 281 284 287 291 294 296 297 299 301 303 305 307 307 306 303 301 300
221 221 219 218 219 220 222 224 225 227 228 230 232 235 236 238 238 239 240 241 241 241 242 241 238 238 239 239 241 243 240 236 233 235 241 245 247 246 245 244 244 244 244 244 245 246 247 248 249 250 250 251 253 254 255 256 256 257 258 260 262 263 264 266 269 272 274 277 279 281 285 288 292 294 295 297 299 302 304 306 307 308 305 303 302 300
221 221 220 219 219 219 220 222 225 227 227 229 232 233 234 235 236 237 240 241 242 242 243 242 239 237 238 238 240 242 242 238 235 235 238 242 245 244 243 242 242 242 242 243 244 245 248 250 251 252 253 255 256 258 259 259 259 259 259 259 260 262 265 267 269 272 275 278 280 282 285 289 291 293 294 297 300 302 305 307 308 308 305 303 302 301
219 220 220 219 219 219 219 220 223 226 228 229 230 231 232 235 236 237 239 242 243 244 244 244 242 240 240 241 242 243 243 242 240 239 239 240 243 245 244 244 244 245 246 246 245 245 248 250 252 253 254 255 257 259 260 261 262 262 260 259 259 262 265 267 269 272 275 278 280 283 286 289 291 292 294 297 300 303 307 308 309 308 305 303 302 301
219 219 220 220 220 219 219 220 222 225 228 229 230 232 234 236 237 237 238 240 242 244 244 244 244 243 242 243 244 245 246 247 246 244 243 243 244 246 247 247 247 248 249 251 252 250 250 252 252 253 253 255 257 259 260 262 263 263 262 260 259 261 264 267 269 272 275 277 280 283 286 288 290 291 294 298 301 305 308 309 309 307 304 303 302 300
220 220 221 221 221 220 219 221 223 224 227 229 231 233 235 236 238 238 239 240 241 243 245 245 245 244 243 242 243 244 245 247 249 248 247 247 246 247 250 249 248 248 248 249 251 252 252 253 253 253 254 255 256 258 260 262 264 265 264 263 261 261 263 266 269 273 275 277 280 283 285 287 289 292 295 299 302 306 309 309 308 306 304 303 299 293
220 221 222 223 223 223 220 220 222 223 225 228 230 232 234 235 237 238 239 240 241 243 246 247 246 245 243 242 241 242 244 247 250 251 252 251 249 248 249 248 249 251 249 249 250 252 253 254 255 255 254 256 257 259 261 263 264 265 266 265 264 263 263 265 268 272 275 277 279 282 284 286 289 292 296 299 303 308 310 309 308 306 305 302 292 282
220 221 223 224 224 224 222 220 222 224 225 227 229 230 232 233 235 236 237 239 240 240 242 243 243 243 243 243 243 243 245 247 249 251 252 253 253 252 252 250 251 253 253 252 253 254 256 257 258 257 257 257 259 261 262 263 265 266 267 267 266 265 265 265 267 270 273 276 278 281 283 285 289 293 296 300 305 309 310 309 307 306 306 299 280 269
220 221 223 224 222 222 223 221 222 225 227 228 230 231 233 234 236 236 237 238 239 238 238 239 239 239 240 243 244 244 245 246 247 249 251 254 255 255 254 253 252 254 255 256 256 257 257 258 258 259 259 259 259 261 263 264 265 267 267 266 266 266 266 266 267 269 272 274 277 280 282 285 289 293 297 301 306 310 310 309 307 307 307 295 269 258
222 222 222 224 223 222 224 224 224 226 229 230 232 233 234 236 238 238 238 239 239 239 239 240 240 240 240 243 244 244 244 244 245 246 249 252 255 255 254 254 254 255 257 257 257 257 257 257 258 259 260 260 259 261 263 264 266 268 268 266 266 266 265 266 267 269 271 273 276 279 282 286 289 293 297 301 307 310 310 309 307 308 309 292 262 249
222 223 223 224 225 224 225 227 227 228 230 231 233 234 235 236 237 238 239 240 241 242 243 244 245 244 244 245 246 245 243 244 244 244 244 247 250 252 252 253 255 257 257 257 257 258 258 258 258 259 260 260 260 261 263 264 267 269 268 267 266 266 265 266 267 268 270 272 276 279 282 286 289 293 297 301 307 311 310 308 307 307 310 294 258 243
221 223 224 225 226 226 225 226 226 226 227 228 230 232 234 235 236 237 238 240 242 243 244 244 246 246 246 246 247 247 246 246 246 244 243 242 245 248 250 251 253 255 255 256 257 258 259 259 258 259 260 260 260 262 264 265 267 268 268 267 266 265 264 265 266 267 269 272 276 279 282 286 289 292 297 301 306 310 310 308 307 306 309 299 261 241
221 223 225 225 226 227 227 227 226 226 227 227 228 229 230 232 234 235 237 239 240 241 243 244 244 244 244 245 246 247 248 248 248 246 245 243 242 244 246 248 251 252 253 255 256 257 259 259 259 260 261 261 261 262 264 265 267 267 266 266 266 265 264 264 265 266 268 272 275 278 282 285 289 292 296 300 305 310 310 307 307 306 307 305 272 244
220 221 223 223 224 225 226 227 228 229 230 231 231 231 231 232 233 235 236 237 238 240 242 243 244 244 244 245 246 247 246 246 245 245 244 244 243 243 244 247 250 252 254 255 256 258 260 261 259 259 260 260 260 261 263 265 267 266 265 265 265 264 263 264 264 265 268 271 274 278 281 285 288 291 296 299 304 309 309 307 306 305 305 306 288 253
220 221 222 222 222 223 225 227 228 229 231 233 234 235 235 235 236 237 238 239 239 241 243 245 246 247 247 247 247 247 245 243 242 242 242 243 243 244 245 247 250 252 254 256 257 259 262 262 260 258 259 260 261 262 264 267 268 266 264 264 265 264 264 264 264 264 267 270 273 277 281 284 288 291 294 298 302 306 309 306 305 305 303 304 299 270
220 221 221 221 222 223 223 223 223 223 225 229 232 234 235 236 236 237 239 242 244 245 246 248 249 248 247 245 243 242 241 239 239 239 240 241 242 244 246 247 248 249 252 254 256 259 261 260 258 258 259 261 263 264 266 268 267 265 265 265 265 265 265 264 263 264 266 269 273 276 280 283 287 290 293 297 300 304 307 307 304 303 302 301 300 289
219 220 221 221 223 223 223 223 222 222 223 225 228 230 232 234 235 236 238 243 246 247 247 247 248 246 244 241 239 238 238 236 236 237 239 240 241 243 245 246 247 248 251 253 256 259 260 258 256 256 258 261 263 265 267 267 266 266 267 266 266 266 265 264 263 263 266 269 272 276 279 283 286 289 291 295 298 301 305 307 305 303 301 299 298 296
220 222 222 223 224 225 225 225 225 225 225 226 228 231 233 234 235 236 237 240 243 244 244 244 244 244 242 239 237 236 235 235 235 237 239 241 241 243 245 247 248 250 252 254 256 257 258 257 256 256 258 261 263 264 265 266 266 267 266 266 267 267 265 263 263 264 266 269 272 275 278 282 284 287 290 293 296 299 302 305 305 303 301 299 296 294
222 224 224 225 225 226 227 227 227 228 228 229 230 233 235 236 237 239 240 241 242 243 242 241 241 241 240 240 239 237 235 235 236 237 240 242 243 245 246 248 250 252 255 257 257 257 256 256 257 258 260 261 263 264 265 266 267 268 266 265 267 267 265 263 262 263 266 268 271 274 277 280 283 286 289 292 295 297 300 302 304 304 302 300 296 292
225 226 228 228 228 229 229 229 229 230 231 231 232 234 236 238 238 240 242 242 242 242 242 240 238 237 237 238 239 238 237 237 238 238 240 243 245 246 247 249 250 253 256 257 257 255 255 255 256 258 259 260 262 264 265 266 267 268 266 264 264 265 264 263 262 263 265 267 270 273 276 279 282 285 288 291 293 295 298 300 302 303 303 301 298 294
227 228 229 230 230 231 232 232 232 232 232 232 232 233 235 236 236 235 237 238 239 240 239 237 235 233 233 235 236 237 237 237 238 238 240 243 245 246 247 248 250 253 255 254 253 254 254 254 256 258 259 261 263 265 265 266 266 267 266 263 262 263 264 263 263 264 265 267 269 272 275 278 281 284 287 289 291 294 296 298 300 301 302 302 300 297
228 229 230 231 231 232 234 235 235 235 235 235 234 234 234 235 232 228 227 230 234 237 237 236 233 231 232 233 233 236 237 237 238 239 240 242 244 246 248 250 253 255 254 251 252 254 256 257 259 261 262 264 265 266 266 266 265 264 264 263 261 262 263 263 263 265 265 267 269 272 275 278 280 283 286 288 290 292 294 296 298 299 301 301 301 299
230 231 232 232 232 233 234 235 235 236 237 237 237 236 235 233 228 223 222 224 228 234 238 238 235 232 232 233 232 234 236 238 240 241 241 242 244 246 248 251 254 255 254 253 254 255 256 258 260 262 264 265 265 266 266 266 264 262 262 262 262 262 263 263 264 265 266 267 269 272 275 277 279 282 284 287 289 291 293 295 296 298 299 300 301 300
231 232 232 232 232 233 233 233 234 235 236 236 236 235 233 230 225 221 222 223 224 230 236 238 236 233 233 234 233 233 235 237 239 241 242 243 245 246 248 250 253 253 252 253 254 254 256 260 262 264 265 265 264 264 266 266 264 262 262 262 263 263 263 264 264 266 267 268 270 273 275 277 279 281 283 285 288 289 292 293 295 297 298 299 300 300
231 231 232 231 231 231 232 231 231 232 233 234 233 229 227 227 224 222 224 224 224 227 233 235 235 233 232 233 234 234 235 237 239 241 243 245 247 248 249 250 251 249 248 250 252 254 257 261 263 265 266 265 264 265 266 266 265 264 263 263 263 264 264 265 265 266 268 269 271 274 276 277 279 281 283 284 287 289 291 293 294 296 297 298 298 298
231 231 231 230 229 228 228 227 226 226 228 229 226 220 219 223 225 223 223 223 224 228 232 233 233 231 231 232 233 233 234 237 239 241 243 245 247 248 248 247 247 247 247 249 252 255 257 259 261 264 266 267 267 267 266 265 265 265 264 264 265 266 266 267 268 268 269 271 273 275 277 278 279 281 282 284 286 289 291 292 294 295 296 296 297 297
229 229 229 228 228 226 224 223 222 221 222 223 220 216 214 218 221 221 222 223 225 228 229 228 228 229 230 232 233 233 234 236 239 241 243 244 245 246 245 243 245 247 249 252 254 255 256 258 260 264 267 269 269 269 267 266 265 266 266 266 267 268 269 269 270 270 271 273 274 276 277 279 280 281 283 285 287 289 290 292 293 294 295 295 296 296
225 226 225 224 223 221 220 218 217 216 215 215 215 215 215 215 217 220 223 225 226 226 224 223 224 226 227 230 231 232 232 234 237 240 242 243 244 244 243 242 245 248 250 252 254 255 256 258 260 264 268 270 270 269 269 268 267 267 268 269 269 270 270 271 272 273 274 275 276 277 278 279 281 282 284 286 287 289 290 291 292 293 294 295 295 295
219 219 218 215 214 213 213 213 212 211 211 210 211 213 214 214 215 220 224 225 226 225 225 225 225 225 225 227 228 229 230 231 234 237 240 241 242 242 242 244 246 248 250 252 254 255 257 258 261 264 267 268 267 268 269 269 269 270 270 271 271 272 272 273 274 275 276 277 278 279 280 281 282 283 285 286 287 289 290 291 292 293 293 294 294 294
209 209 207 207 207 207 206 207 209 210 210 211 212 213 213 213 215 219 223 225 227 227 227 228 228 227 226 226 226 227 227 228 230 234 238 240 240 240 242 245 247 249 251 254 255 257 259 260 262 264 265 264 264 266 268 270 271 271 272 272 272 273 274 275 275 276 277 278 279 280 281 282 283 284 285 287 288 289 290 291 292 292 293 293 293 293
197 195 195 196 198 200 201 204 206 208 209 211 211 212 213 214 217 219 223 226 228 228 227 227 227 228 228 226 226 227 228 228 230 234 238 240 240 241 244 247 249 250 253 256 259 260 262 262 263 264 263 263 264 266 268 270 271 272 272 272 273 274 274 275 276 277 278 278 279 280 281 283 284 285 286 287 288 289 290 291 292 292 293 293 293 293
190 187 188 190 191 192 196 200 202 205 207 209 210 210 212 215 218 221 223 226 227 227 226 225 226 228 228 227 228 231 233 234 235 237 238 240 242 244 246 248 250 252 256 260 261 262 262 263 264 264 265 265 266 267 269 270 271 271 272 272 273 274 274 275 276 277 278 279 280 281 282 283 285 286 287 288 289 290 290 291 292 292 292 292 292 292
189 188 189 193 192 191 194 198 201 203 207 209 209 210 212 214 218 220 221 223 224 224 223 223 224 226 226 227 229 231 233 234 236 237 239 241 242 244 246 248 251 255 260 262 261 261 262 263 265 266 267 268 268 269 269 270 271 271 272 273 273 274 275 275 276 277 279 280 281 282 283 284 285 286 288 288 289 290 291 291 292 292 292 293 293 293
192 192 194 197 198 198 200 201 202 204 208 211 211 211 212 214 217 218 219 220 221 221 221 222 224 225 226 227 229 230 232 234 236 239 241 242 243 244 246 249 253 257 260 260 260 262 264 265 266 268 268 268 268 268 269 270 271 272 273 273 274 275 276 277 278 279 280 281 282 283 284 285 286 287 288 289 290 290 291 292 292 293 293 293 293 293
197 198 200 203 205 207 210 210 209 211 214 216 217 215 213 214 215 217 218 219 220 221 222 224 226 228 230 232 234 235 237 239 242 243 245 247 249 249 250 252 255 258 259 259 261 263 265 267 268 268 268 267 267 267 268 269 270 272 273 274 275 276 277 278 279 280 281 282 283 284 285 286 287 288 289 290 291 292 292 293 293 293 294 294 293 293
202 203 207 210 212 215 217 218 218 218 219 221 222 221 219 217 217 217 218 220 222 224 226 228 230 232 234 236 238 240 241 243 246 247 248 251 254 255 255 256 257 259 260 261 262 265 266 268 269 269 269 269 269 269 269 270 270 272 273 274 275 277 278 279 280 282 283 284 285 286 287 288 289 290 291 291 292 292 293 293 293 293 293 293 292 292
Height
10612 10618 10624 10628 10632 10636 10638 10639 10641 10644 10650 10656 10659 10663 10667 10670 10671 10676 10686 10687 10682 10685 10689 10690 10694 10700 10702 10704 10711 10719 10721 10726 10735 10740 10741 10743 10743 10746 10748 10751 10756 10760 10765 10770 10774 10776 10778 10778 10777 10772 10766 10764 10766 10767 10768 10768 10769 10769 10768 10768 10768 10767 10767 10766 10765 10764 10762 10762 10762 10761 10761 10761 10761 10760 10759 10758 10756 10755 10754 10752 10750 10748 10747 10746 10744 10742
10608 10616 10621 10622 10625 10628 10631 10633 10636 10641 10647 10652 10655 10659 10663 10665 10667 10671 10680 10683 10678 10677 10681 10685 10692 10696 10696 10700 10708 10714 10716 10720 10728 10733 10736 10737 10738 10741 10743 10746 10751 10755 10759 10763 10766 10769 10770 10770 10770 10766 10760 10760 10762 10763 10763 10764 10764 10764 10764 10764 10764 10764 10763 10762 10761 10760 10759 10758 10758 10758 10757 10757 10757 10756 10755 10754 10753 10751 10750 10749 10747 10745 10743 10741 10738 10735
10607 10613 10615 10615 10618 10622 10627 10629 10632 10637 10642 10647 10651 10655 10659 10661 10662 10666 10675 10679 10674 10671 10676 10682 10689 10691 10692 10697 10703 10708 10711 10715 10719 10724 10730 10732 10734 10737 10739 10741 10746 10751 10754 10757 10759 10760 10761 10762 10762 10759 10755 10756 10759 10760 10760 10760 10760 10760 10760 10760 10759 10759 10759 10758 10757 10756 10755 10755 10754 10753 10753 10753 10752 10751 10751 10749 10748 10747 10745 10744 10743 10742 10740 10737 10734 10729
10604 10608 10607 10609 10613 10617 10622 10625 10628 10633 10638 10644 10648 10652 10655 10656 10658 10661 10670 10675 10670 10667 10673 10679 10683 10686 10689 10693 10698 10702 10705 10709 10712 10717 10723 10726 10730 10734 10736 10738 10742 10746 10748 10748 10750 10751 10753 10754 10755 10754 10752 10753 10755 10756 10757 10756 10757 10757 10756 10755 10754 10754 10753 10753 10752 10751 10751 10750 10749 10748 10748 10748 10747 10746 10745 10744 10743 10741 10740 10739 10738 10739 10740 10739 10735 10729
10597 10599 10598 10602 10607 10612 10617 10620 10624 10629 10635 10640 10643 10647 10649 10650 10652 10655 10662 10668 10666 10664 10668 10674 10679 10682 10686 10690 10693 10697 10701 10705 10707 10711 10717 10721 10726 10730 10732 10734 10736 10738 10739 10740 10743 10744 10746 10748 10749 10749 10748 10749 10751 10752 10752 10752 10753 10753 10752 10751 10750 10749 10749 10749 10748 10747 10746 10745 10743 10743 10742 10742 10741 10740 10739 10738 10737 10736 10735 10734 10733 10736 10739 10739 10734 10726
10589 10591 10593 10598 10603 10607 10612 10616 10620 10625 10631 10635 10639 10643 10643 10644 10646 10649 10655 10661 10664 10665 10664 10668 10675 10678 10682 10686 10689 10693 10697 10699 10701 10706 10712 10716 10719 10722 10725 10727 10728 10730 10732 10735 10736 10737 10739 10741 10742 10742 10743 10744 10746 10747 10748 10749 10749 10748 10747 10746 10745 10745 10745 10744 10744 10743 10742 10740 10738 10737 10736 10736 10734 10734 10734 10733 10732 10731 10730 10728 10728 10730 10733 10732 10727 10719
10582 10585 10589 10594 10599 10604 10609 10613 10616 10621 10627 10631 10634 10637 10637 10638 10641 10643 10648 10656 10663 10665 10661 10662 10667 10672 10677 10682 10686 10689 10690 10693 10697 10703 10707 10708 10709 10713 10717 10720 10722 10723 10726 10729 10729 10730 10732 10733 10734 10735 10736 10739 10740 10742 10743 10744 10744 10744 10743 10742 10741 10741 10740 10740 10740 10739 10737 10736 10734 10733 10732 10731 10730 10729 10728 10728 10727 10726 10724 10723 10722 10722 10723 10723 10718 10713
10578 10580 10585 10590 10595 10600 10606 10611 10613 10617 10624 10627 10629 10631 10632 10634 10636 10637 10644 10652 10660 10664 10661 10658 10659 10665 10674 10679 10682 10683 10685 10690 10696 10700 10702 10703 10704 10707 10711 10715 10716 10717 10720 10722 10722 10722 10724 10726 10727 10729 10731 10733 10735 10737 10738 10739 10739 10739 10738 10737 10736 10736 10736 10736 10735 10734 10733 10732 10730 10729 10728 10727 10726 10724 10724 10723 10723 10722 10719 10718 10716 10714 10714 10713 10710 10706
10571 10575 10582 10585 10590 10597 10603 10606 10607 10612 10620 10622 10623 10625 10627 10631 10630 10633 10641 10648 10654 10660 10661 10657 10655 10661 10670 10675 10677 10679 10682 10687 10691 10695 10699 10701 10702 10703 10706 10709 10709 10710 10711 10712 10713 10716 10718 10720 10721 10723 10725 10728 10729 10731 10732 10733 10734 10733 10733 10733 10732 10732 10732 10732 10731 10729 10729 10728 10727 10726 10724 10723 10722 10721 10720 10719 10718 10717 10715 10712 10710 10707 10705 10704 10702 10698
10564 10571 10576 10578 10585 10593 10597 10600 10602 10608 10615 10616 10617 10618 10622 10626 10625 10630 10638 10642 10647 10655 10658 10657 10656 10658 10663 10669 10673 10675 10679 10683 10685 10692 10697 10698 10699 10699 10700 10702 10702 10702 10701 10703 10707 10710 10712 10714 10716 10719 10720 10722 10723 10725 10727 10728 10728 10728 10728 10728 10728 10728 10727 10727 10726 10725 10724 10724 10723 10722 10720 10719 10718 10718 10717 10716 10714 10712 10709 10707 10703 10701 10698 10695 10693 10691
10560 10564 10567 10573 10582 10588 10591 10593 10597 10604 10609 10610 10612 10613 10618 10621 10621 10627 10635 10637 10643 10651 10654 10656 10656 10655 10658 10664 10668 10671 10675 10680 10683 10689 10693 10693 10694 10695 10695 10696 10697 10696 10695 10697 10701 10704 10706 10708 10711 10714 10715 10716 10717 10720 10722 10722 10723 10723 10723 10723 10723 10723 10723 10722 10721 10720 10720 10719 10719 10718 10716 10715 10715 10715 10713 10712 10710 10707 10704 10701 10698 10694 10691 10688 10685 10682
10554 10557 10564 10572 10578 10581 10585 10589 10594 10599 10603 10606 10607 10609 10614 10617 10618 10625 10631 10633 10640 10647 10650 10653 10652 10652 10655 10659 10664 10667 10671 10677 10682 10686 10688 10687 10688 10689 10690 10691 10693 10691 10689 10692 10695 10698 10701 10704 10706 10708 10710 10711 10712 10714 10716 10717 10717 10718 10718 10718 10718 10718 10718 10717 10716 10716 10715 10715 10714 10713 10713 10712 10711 10711 10709 10707 10705 10702 10699 10696 10692 10688 10685 10682 10678 10674
10549 10553 10562 10569 10571 10575 10581 10586 10590 10594 10599 10602 10603 10606 10610 10612 10616 10624 10628 10631 10636 10642 10645 10647 10648 10649 10651 10655 10661 10664 10669 10675 10678 10680 10681 10682 10682 10683 10684 10685 10687 10685 10685 10688 10690 10692 10695 10698 10701 10703 10704 10705 10707 10709 10711 10712 10712 10713 10714 10714 10713 10713 10713 10712 10712 10711 10711 10710 10710 10710 10709 10709 10708 10707 10705 10703 10700 10697 10694 10691 10687 10682 10679 10675 10671 10666
10542 10548 10555 10561 10567 10573 10579 10583 10586 10591 10597 10599 10600 10604 10607 10609 10615 10620 10623 10627 10631 10635 10640 10642 10643 10646 10648 10653 10658 10663 10668 10673 10673 10674 10676 10676 10676 10677 10678 10679 10681 10681 10681 10684 10686 10687 10690 10692 10695 10697 10698 10700 10702 10704 10705 10706 10707 10708 10709 10709 10709 10708 10709 10709 10708 10708 10707 10707 10706 10706 10705 10705 10704 10703 10701 10698 10696 10692 10689 10685 10681 10676 10673 10668 10663 10659
10537 10544 10552 10561 10567 10572 10575 10579 10584 10588 10591 10593 10594 10599 10603 10606 10612 10615 10617 10621 10624 10629 10634 10637 10640 10644 10647 10652 10656 10661 10667 10669 10669 10670 10670 10670 10671 10672 10673 10674 10676 10677 10678 10680 10681 10683 10685 10687 10690 10692 10693 10695 10697 10698 10699 10700 10701 10702 10703 10704 10704 10704 10705 10705 10705 10704 10704 10703 10703 10702 10702 10701 10701 10699 10697 10694 10691 10688 10684 10680 10675 10671 10667 10662 10656 10652
10533 10541 10549 10556 10561 10566 10568 10573 10578 10579 10583 10588 10588 10593 10601 10604 10606 10608 10611 10615 10617 10622 10627 10631 10638 10643 10646 10650 10652 10656 10662 10665 10665 10666 10665 10665 10666 10668 10669 10670 10671 10672 10674 10676 10677 10679 10681 10683 10685 10687 10689 10690 10691 10692 10693 10694 10695 10696 10698 10699 10700 10700 10701 10701 10701 10700 10699 10699 10698 10698 10698 10697 10697 10695 10692 10689 10686 10683 10679 10675 10670 10666 10661 10655 10650 10646
10529 10536 10543 10548 10552 10558 10563 10567 10571 10573 10580 10584 10585 10594 10601 10599 10598 10602 10606 10608 10611 10617 10621 10627 10635 10640 10642 10646 10648 10652 10657 10659 10661 10662 10660 10660 10661 10663 10664 10665 10665 10666 10668 10670 10672 10674 10675 10677 10679 10681 10683 10684 10685 10686 10687 10688 10689 10690 10692 10694 10695 10696 10696 10696 10696 10695 10694 10694 10694 10694 10694 10693 10692 10690 10687 10684 10682 10678 10674 10670 10665 10661 10655 10650 10645 10640
10524 10530 10535 10542 10546 10550 10557 10562 10563 10568 10575 10579 10584 10592 10591 10587 10591 10598 10601 10602 10607 10613 10617 10622 10630 10634 10637 10641 10645 10648 10650 10652 10655 10656 10655 10655 10655 10657 10659 10659 10660 10661 10662 10665 10667 10669 10671 10672 10674 10676 10677 10678 10679 10680 10681 10681 10683 10685 10687 10688 10690 10690 10691 10691 10690 10689 10689 10689 10689 10689 10689 10689 10687 10685 10682 10680 10677 10673 10669 10664 10660 10656 10651 10645 10640 10636
10516 10522 10527 10534 10539 10544 10552 10555 10557 10564 10572 10577 10580 10580 10577 10579 10588 10594 10597 10600 10604 10608 10612 10618 10624 10630 10633 10637 10640 10642 10643 10645 10648 10649 10650 10650 10651 10653 10655 10656 10657 10658 10659 10661 10663 10666 10667 10668 10670 10671 10672 10673 10674 10675 10675 10676 10677 10679 10680 10682 10684 10685 10685 10685 10685 10684 10684 10684 10684 10684 10684 10684 10682 10680 10678 10676 10673 10669 10664 10659 10655 10652 10646 10641 10636 10632
10509 10515 10521 10526 10532 10538 10544 10550 10557 10566 10570 10571 10570 10569 10572 10579 10586 10590 10593 10597 10600 10602 10606 10613 10620 10625 10630 10633 10635 10637 10638 10639 10641 10642 10644 10645 10647 10650 10652 10654 10656 10656 10657 10658 10659 10661 10663 10665 10666 10667 10668 10669 10670 10671 10671 10671 10672 10673 10674 10676 10678 10679 10679 10680 10679 10680 10680 10680 10679 10680 10680 10679 10677 10675 10673 10671 10668 10664 10660 10655 10651 10648 10643 10637 10632 10629
10505 10510 10515 10520 10525 10532 10542 10552 10560 10563 10561 10560 10563 10566 10572 10577 10581 10585 10589 10592 10596 10598 10602 10609 10615 10620 10625 10628 10629 10631 10633 10634 10634 10636 10637 10639 10642 10645 10648 10650 10652 10652 10652 10653 10654 10656 10658 10660 10661 10662 10664 10665 10666 10666 10666 10666 10667 10668 10669 10670 10671 10673 10673 10674 10674 10675 10675 10675 10675 10675 10675 10674 10672 10670 10668 10666 10663 10660 10655 10651 10647 10644 10639 10634 10630 10627
10500 10505 10510 10515 10523 10533 10545 10551 10551 10551 10552 10554 10558 10563 10567 10571 10574 10578 10583 10588 10592 10596 10600 10605 10610 10614 10618 10620 10623 10627 10628 10629 10629 10630 10630 10633 10637 10639 10642 10645 10646 10646 10646 10647 10650 10652 10653 10654 10655 10657 10659 10660 10661 10661 10661 10661 10662 10663 10664 10664 10665 10667 10667 10668 10669 10670 10670 10670 10670 10670 10670 10668 10667 10665 10663 10661 10658 10655 10651 10647 10643 10640 10636 10631 10628 10625
10496 10501 10506 10514 10524 10532 10538 10541 10541 10542 10545 10548 10551 10556 10559 10562 10566 10572 10579 10582 10586 10591 10595 10597 10602 10607 10610 10613 10618 10622 10624 10624 10624 10624 10624 10627 10631 10634 10637 10639 10640 10640 10641 10643 10645 10647 10647 10649 10650 10652 10654 10655 10655 10655 10655 10656 10657 10658 10658 10659 10659 10661 10662 10663 10664 10665 10665 10665 10665 10666 10665 10663 10662 10661 10658 10656 10654 10650 10647 10643 10640 10636 10632 10629 10626 10624
10490 10497 10503 10511 10520 10524 10526 10531 10534 10536 10538 10542 10546 10550 10554 10558 10563 10570 10575 10576 10578 10582 10585 10588 10593 10600 10605 10608 10612 10617 10618 10617 10617 10619 10620 10623 10626 10628 10631 10633 10633 10634 10637 10639 10640 10641 10642 10643 10644 10646 10648 10650 10650 10650 10650 10651 10652 10653 10653 10653 10654 10655 10656 10658 10659 10660 10660 10660 10661 10661 10660 10658 10657 10655 10653 10651 10649 10646 10642 10639 10636 10633 10630 10627 10624 10623
10488 10494 10501 10507 10513 10517 10521 10527 10531 10533 10536 10540 10544 10547 10552 10557 10561 10566 10568 10567 10569 10574 10578 10580 10586 10595 10601 10603 10607 10610 10609 10609 10612 10615 10617 10619 10622 10624 10625 10626 10628 10630 10632 10633 10634 10635 10636 10637 10639 10641 10643 10644 10644 10645 10645 10646 10647 10647 10648 10648 10649 10650 10651 10653 10654 10655 10655 10655 10656 10656 10654 10653 10652 10650 10649 10647 10645 10642 10638 10635 10633 10630 10627 10624 10622 10621
10485 10491 10498 10502 10508 10515 10520 10524 10528 10531 10534 10536 10539 10543 10548 10551 10554 10558 10560 10559 10563 10570 10572 10573 10582 10593 10598 10599 10601 10602 10601 10603 10608 10611 10613 10616 10618 10619 10620 10622 10624 10625 10626 10627 10628 10629 10631 10632 10634 10636 10637 10638 10638 10639 10640 10641 10642 10642 10643 10644 10645 10645 10646 10647 10649 10649 10650 10650 10651 10650 10649 10648 10646 10645 10644 10642 10641 10638 10635 10632 10629 10627 10624 10622 10620 10619
10482 10487 10493 10498 10504 10509 10513 10515 10518 10520 10522 10526 10530 10535 10539 10543 10546 10549 10551 10552 10559 10563 10562 10566 10578 10588 10592 10594 10594 10595 10596 10599 10603 10606 10609 10611 10612 10613 10615 10617 10619 10620 10621 10622 10623 10625 10626 10627 10629 10631 10632 10632 10633 10634 10635 10636 10636 10637 10638 10639 10639 10640 10641 10642 10643 10644 10644 10645 10645 10645 10644 10642 10641 10640 10639 10638 10637 10634 10631 10628 10626 10624 10622 10620 10618 10617
10480 10485 10489 10495 10499 10502 10505 10506 10507 10510 10514 10518 10522 10525 10530 10534 10536 10539 10543 10548 10552 10552 10552 10562 10573 10580 10584 10586 10587 10589 10592 10594 10597 10600 10603 10605 10607 10609 10611 10612 10613 10615 10616 10617 10619 10620 10622 10623 10625 10626 10626 10627 10628 10629 10629 10631 10632 10632 10633 10633 10633 10634 10635 10636 10637 10638 10639 10640 10640 10639 10638 10637 10636 10635 10635 10634 10632 10631 10628 10625 10623 10620 10619 10617 10615 10614
10477 10481 10484 10489 10493 10495 10497 10498 10502 10508 10511 10513 10516 10520 10524 10527 10530 10534 10539 10542 10542 10542 10547 10558 10566 10571 10576 10579 10581 10584 10586 10588 10591 10594 10596 10599 10602 10604 10606 10607 10608 10610 10611 10612 10614 10616 10617 10619 10620 10621 10621 10622 10623 10624 10625 10626 10627 10627 10627 10627 10628 10629 10630 10631 10632 10633 10633 10634 10634 10634 10633 10632 10631 10630 10630 10629 10628 10627 10625 10622 10620 10617 10615 10614 10613 10611
10472 10475 10480 10484 10486 10489 10492 10496 10502 10507 10508 10510 10513 10518 10521 10524 10528 10531 10533 10533 10533 10537 10546 10555 10559 10565 10570 10573 10575 10578 10580 10582 10585 10588 10591 10594 10596 10599 10601 10602 10603 10605 10606 10607 10609 10611 10612 10614 10614 10615 10616 10617 10618 10618 10620 10621 10622 10622 10622 10622 10622 10623 10624 10625 10626 10627 10628 10629 10629 10628 10627 10627 10626 10625 10625 10624 10623 10623 10621 10619 10617 10615 10613 10611 10609 10608
10466 10470 10474 10479 10481 10484 10488 10493 10498 10501 10503 10507 10511 10514 10517 10519 10523 10527 10528 10529 10532 10539 10547 10552 10556 10560 10564 10566 10568 10570 10573 10576 10580 10583 10586 10588 10590 10593 10595 10596 10597 10599 10600 10602 10604 10606 10607 10608 10609 10609 10610 10611 10612 10613 10614 10615 10616 10617 10617 10616 10616 10618 10619 10620 10621 10621 10622 10623 10623 10623 10622 10622 10621 10620 10620 10619 10618 10618 10616 10615 10613 10611 10610 10607 10606 10604
10459 10463 10469 10473 10475 10479 10483 10487 10491 10495 10498 10502 10504 10506 10509 10512 10517 10523 10526 10528 10531 10537 10544 10548 10551 10554 10556 10557 10560 10562 10566 10570 10574 10577 10580 10582 10585 10587 10589 10590 10592 10594 10595 10597 10599 10600 10602 10603 10603 10604 10605 10606 10607 10608 10609 10610 10611 10612 10611 10610 10611 10613 10614 10614 10615 10616 10616 10617 10617 10617 10617 10616 10616 10615 10614 10614 10613 10612 10612 10610 10609 10607 10606 10604 10602 10600
10454 10459 10463 10467 10470 10474 10478 10482 10486 10489 10493 10496 10499 10502 10505 10508 10513 10519 10522 10523 10525 10530 10536 10540 10542 10546 10547 10548 10551 10555 10559 10564 10568 10571 10574 10577 10579 10581 10582 10584 10586 10588 10590 10592 10594 10595 10596 10597 10598 10599 10600 10601 10602 10603 10604 10605 10606 10606 10605 10605 10607 10608 10608 10609 10609 10610 10610 10611 10611 10611 10611 10611 10610 10609 10609 10608 10608 10607 10606 10605 10604 10603 10602 10600 10599 10597
10452 10455 10458 10462 10466 10470 10474 10478 10480 10484 10489 10494 10498 10499 10501 10505 10511 10514 10515 10517 10519 10523 10528 10530 10534 10538 10540 10542 10545 10550 10554 10558 10563 10566 10568 10570 10573 10575 10577 10578 10581 10583 10586 10587 10588 10588 10590 10591 10592 10593 10594 10596 10596 10597 10598 10599 10600 10599 10598 10600 10602 10602 10602 10603 10603 10604 10604 10605 10605 10605 10605 10605 10604 10603 10603 10603 10602 10601 10601 10600 10599 10598 10596 10595 10594 10593
10449 10451 10455 10458 10462 10466 10469 10472 10476 10481 10486 10491 10493 10495 10497 10501 10507 10509 10509 10510 10514 10516 10520 10524 10528 10532 10534 10537 10541 10546 10550 10554 10557 10560 10563 10565 10567 10569 10570 10573 10576 10579 10580 10580 10581 10582 10584 10586 10586 10587 10589 10590 10590 10591 10592 10594 10594 10592 10592 10595 10596 10596 10596 10596 10597 10598 10598 10599 10599 10599 10599 10598 10598 10597 10597 10597 10596 10596 10595 10594 10593 10592 10591 10590 10589 10588
10444 10447 10449 10452 10457 10461 10464 10468 10473 10477 10481 10484 10487 10490 10493 10497 10502 10504 10503 10504 10507 10510 10514 10519 10522 10525 10528 10532 10536 10540 10544 10547 10550 10553 10557 10559 10561 10562 10564 10567 10570 10572 10573 10574 10575 10577 10579 10580 10580 10582 10583 10584 10584 10586 10587 10587 10586 10586 10587 10589 10590 10590 10590 10590 10591 10591 10592 10593 10593 10593 10592 10592 10591 10591 10591 10590 10590 10590 10589 10588 10587 10586 10585 10584 10582 10581
10438 10441 10443 10447 10453 10458 10460 10464 10469 10472 10474 10478 10482 10486 10488 10492 10496 10497 10496 10498 10502 10505 10509 10513 10516 10519 10522 10526 10530 10534 10536 10539 10542 10546 10551 10553 10555 10556 10559 10562 10564 10566 10568 10569 10570 10571 10573 10574 10575 10576 10577 10578 10579 10580 10581 10580 10580 10580 10581 10582 10583 10584 10584 10584 10584 10585 10586 10586 10586 10586 10586 10585 10585 10584 10584 10584 10584 10583 10582 10581 10580 10579 10579 10578 10576 10575
10433 10436 10439 10443 10449 10452 10455 10459 10463 10466 10470 10474 10477 10481 10484 10487 10490 10489 10489 10493 10497 10501 10505 10508 10511 10514 10516 10520 10524 10527 10530 10533 10537 10540 10544 10546 10549 10551 10554 10557 10559 10561 10562 10563 10564 10566 10567 10568 10569 10570 10571 10572 10573 10574 10575 10574 10574 10574 10575 10576 10577 10577 10577 10578 10578 10579 10579 10579 10580 10579 10579 10579 10578 10578 10577 10577 10576 10576 10575 10574 10573 10572 10571 10570 10569 10568
10427 10430 10434 10438 10443 10446 10449 10453 10458 10461 10465 10468 10473 10477 10479 10481 10483 10482 10483 10489 10494 10497 10500 10502 10505 10509 10512 10514 10518 10522 10525 10529 10531 10534 10537 10540 10544 10547 10549 10551 10553 10555 10556 10558 10560 10561 10562 10563 10564 10564 10565 10566 10567 10568 10568 10567 10568 10568 10569 10570 10571 10571 10571 10572 10572 10572 10573 10572 10573 10573 10572 10572 10572 10571 10570 10570 10569 10568 10567 10566 10565 10565 10564 10563 10562 10561
10421 10425 10428 10433 10437 10441 10444 10448 10453 10456 10459 10464 10469 10472 10473 10474 10475 10477 10482 10487 10491 10492 10494 10496 10499 10503 10506 10509 10513 10518 10521 10523 10526 10529 10533 10536 10539 10541 10543 10546 10548 10549 10551 10553 10554 10555 10556 10557 10557 10557 10558 10560 10562 10562 10561 10561 10562 10563 10563 10563 10564 10564 10565 10566 10566 10566 10566 10566 10566 10566 10565 10565 10565 10564 10563 10562 10561 10560 10560 10558 10558 10557 10556 10555 10554 10553
10417 10420 10424 10428 10432 10435 10439 10443 10447 10450 10455 10460 10464 10466 10468 10468 10471 10476 10480 10483 10484 10487 10490 10492 10493 10496 10500 10505 10510 10513 10515 10518 10522 10526 10528 10531 10533 10535 10537 10540 10541 10543 10545 10546 10548 10549 10550 10551 10551 10551 10552 10554 10556 10556 10555 10555 10556 10556 10556 10557 10557 10558 10558 10559 10559 10559 10559 10559 10559 10559 10559 10558 10557 10557 10556 10555 10554 10553 10552 10550 10549 10548 10547 10546 10545 10544
10412 10416 10420 10424 10428 10431 10434 10438 10441 10446 10451 10455 10458 10460 10462 10465 10470 10474 10475 10477 10480 10484 10486 10488 10489 10492 10497 10501 10504 10506 10509 10514 10518 10520 10522 10524 10527 10529 10532 10534 10536 10538 10540 10541 10543 10544 10544 10545 10545 10546 10547 10549 10550 10549 10549 10549 10550 10550 10550 10551 10551 10552 10552 10552 10552 10552 10552 10552 10552 10552 10552 10551 10550 10549 10548 10547 10546 10545 10544 10542 10541 10540 10538 10537 10536 10535
10408 10412 10416 10420 10424 10427 10430 10434 10437 10442 10447 10450 10453 10455 10459 10463 10467 10468 10469 10473 10477 10480 10482 10485 10487 10490 10493 10495 10497 10500 10505 10510 10512 10514 10516 10519 10521 10524 10527 10529 10531 10533 10534 10536 10537 10538 10539 10539 10540 10540 10541 10543 10544 10543 10543 10543 10544 10544 10544 10545 10545 10545 10545 10545 10545 10545 10545 10545 10545 10545 10544 10543 10543 10542 10541 10539 10538 10537 10535 10534 10532 10531 10529 10528 10526 10525
10405 10408 10412 10416 10419 10423 10426 10430 10433 10437 10441 10444 10447 10452 10456 10460 10461 10462 10464 10468 10472 10475 10478 10481 10483 10486 10488 10490 10493 10498 10502 10505 10507 10509 10512 10514 10516 10519 10522 10524 10526 10527 10529 10530 10531 10532 10533 10534 10535 10535 10536 10537 10537 10538 10538 10538 10539 10539 10539 10539 10538 10538 10538 10538 10538 10538 10538 10538 10537 10537 10537 10536 10535 10534 10533 10531 10530 10528 10527 10525 10524 10522 10520 10519 10517 10515
10403 10407 10410 10413 10416 10419 10422 10425 10428 10433 10437 10440 10443 10448 10451 10453 10455 10456 10460 10464 10468 10472 10475 10477 10479 10481 10484 10487 10491 10496 10499 10501 10503 10505 10507 10510 10512 10515 10516 10518 10520 10522 10523 10524 10526 10527 10528 10528 10529 10529 10529 10530 10531 10532 10533 10534 10534 10533 10533 10532 10532 10532 10532 10532 10532 10531 10531 10531 10530 10530 10529 10528 10527 10526 10525 10523 10521 10520 10518 10516 10514 10513 10511 10509 10507 10504
10401 10404 10408 10410 10414 10417 10420 10423 10426 10431 10434 10437 10441 10445 10447 10449 10452 10454 10458 10461 10466 10469 10472 10474 10476 10478 10481 10484 10488 10492 10494 10497 10499 10502 10504 10506 10508 10510 10511 10513 10514 10516 10518 10519 10520 10521 10522 10522 10522 10523 10523 10524 10526 10527 10528 10528 10528 10528 10527 10526 10526 10526 10526 10525 10525 10525 10524 10524 10523 10523 10522 10520 10519 10518 10516 10515 10513 10511 10509 10506 10504 10502 10500 10498 10496 10493
10400 10403 10405 10408 10411 10415 10418 10421 10424 10428 10431 10434 10438 10442 10445 10447 10450 10453 10456 10459 10462 10465 10468 10471 10473 10475 10478 10482 10485 10488 10491 10494 10496 10498 10500 10502 10504 10505 10506 10507 10509 10511 10513 10514 10514 10514 10515 10516 10516 10517 10518 10519 10520 10521 10521 10521 10521 10521 10521 10521 10520 10520 10519 10519 10518 10518 10518 10517 10516 10515 10514 10513 10511 10510 10508 10506 10504 10501 10499 10497 10494 10492 10489 10487 10484 10482
10400 10403 10405 10407 10410 10413 10416 10418 10422 10425 10428 10432 10435 10439 10442 10444 10447 10450 10453 10456 10459 10462 10466 10469 10471 10473 10476 10479 10482 10485 10488 10490 10493 10495 10496 10498 10498 10499 10500 10502 10504 10506 10507 10508 10507 10508 10509 10510 10511 10512 10514 10515 10515 10515 10514 10514 10514 10514 10514 10514 10514 10513 10513 10512 10512 10511 10510 10510 10509 10508 10506 10505 10503 10501 10499 10497 10494 10492 10489 10486 10484 10481 10478 10475 10472 10470
10401 10404 10406 10408 10411 10413 10415 10418 10421 10424 10427 10430 10433 10437 10440 10443 10445 10448 10451 10454 10457 10460 10463 10466 10468 10471 10474 10477 10479 10482 10484 10488 10490 10492 10492 10491 10491 10493 10495 10497 10499 10501 10501 10501 10502 10503 10504 10505 10506 10508 10508 10509 10509 10508 10508 10507 10507 10507 10507 10507 10507 10506 10506 10505 10505 10504 10503 10502 10501 10500 10498 10496 10494 10492 10490 10487 10485 10482 10479 10476 10473 10470 10466 10463 10460 10457
10402 10405 10407 10409 10411 10413 10415 10418 10421 10424 10426 10429 10432 10435 10439 10442 10444 10447 10449 10452 10454 10457 10460 10463 10465 10468 10471 10473 10476 10478 10482 10485 10486 10486 10486 10485 10485 10488 10491 10492 10494 10495 10495 10496 10498 10499 10499 10499 10501 10501 10502 10502 10502 10502 10502 10502 10501 10501 10500 10500 10500 10499 10499 10498 10497 10496 10495 10494 10493 10491 10489 10487 10485 10483 10480 10478 10475 10472 10468 10465 10462 10459 10455 10452 10449 10446
10402 10404 10405 10407 10409 10411 10414 10417 10420 10422 10425 10427 10430 10434 10437 10439 10441 10444 10446 10449 10452 10454 10457 10460 10462 10465 10467 10470 10472 10475 10478 10480 10481 10481 10481 10481 10481 10482 10484 10486 10488 10489 10490 10491 10493 10493 10493 10493 10494 10494 10495 10495 10496 10496 10496 10495 10495 10494 10494 10493 10493 10492 10491 10490 10489 10488 10487 10485 10484 10482 10480 10478 10475 10473 10470 10467 10464 10461 10458 10455 10451 10448 10445 10442 10438 10435